This demonstration page uses our WeatherBlox Daily Observations layout. Learn more.

Left ArrowRight Arrow

34.74481, -87.66753

Hourly Observations for May 14, 2019

Temp ( °F °C ) Dew Point ( °F °C ) Humidity (%) Winds ( mph kmh ) Pressure ( in mb ) Visibility ( mi km ) Precip ( " mm )
12:53 am 00:53 Clear 57 13.9 49 9.4 74 74 ENE 6 9 30.01 1016 10 16 0.00 0.00
1:53 am 01:53 Clear 55 12.8 48 8.9 77 77 NE 3 6 30.00 1016 10 16 0.00 0.00
2:53 am 02:53 Clear 53 11.7 48 8.9 83 83 Calm 30.01 1016 10 16 0.00 0.00
3:53 am 03:53 Clear 52 11.1 48 8.9 86 86 Calm 30.02 1017 10 16 0.00 0.00
4:53 am 04:53 Clear 51 10.6 48 8.9 89 89 Calm 30.03 1017 10 16 0.00 0.00
5:53 am 05:53 Sunny 49 9.4 46 7.8 90 90 Calm 30.06 1018 10 16 0.00 0.00
6:53 am 06:53 Sunny 54 12.2 51 10.6 90 90 Calm 30.08 1019 10 16 0.00 0.00
7:53 am 07:53 Sunny 57 13.9 48 8.9 72 72 ENE 6 9 30.10 1019 10 16 0.00 0.00
8:53 am 08:53 Sunny 60 15.6 46 7.8 60 60 ENE 7 11 30.11 1020 10 16 0.00 0.00
9:53 am 09:53 Mostly Sunny 63 17.2 43 6.1 48 48 Calm 30.11 1020 10 16 0.00 0.00
10:53 am 10:53 Sunny 65 18.3 44 6.7 47 47 NE 8 13 30.11 1020 10 16 0.00 0.00
11:53 am 11:53 Sunny 66 18.9 43 6.1 43 43 E 6 9 30.10 1019 10 16 0.00 0.00
12:53 pm 12:53 Sunny 69 20.6 46 7.8 44 44 ENE 6 9 30.09 1019 10 16 0.00 0.00
1:53 pm 13:53 Sunny 70 21.1 46 7.8 42 42 VRB 6 9 30.06 1018 10 16 0.00 0.00
2:53 pm 14:53 Sunny 70 21.1 44 6.7 39 39 undefined N/A 30.04 1017 10 16 0.00 0.00
3:53 pm 15:53 Sunny 73 22.8 45 7.2 37 37 NW 6 9 30.02 1017 10 16 0.00 0.00
4:53 pm 16:53 Sunny 73 22.8 46 7.8 38 38 NE 7 11 30.01 1016 10 16 0.00 0.00
5:53 pm 17:53 Sunny 72 22.2 45 7.2 38 38 E 5 7 30.01 1016 10 16 0.00 0.00
6:53 pm 18:53 Sunny 70 21.1 48 8.9 46 46 E 5 7 30.01 1016 10 16 0.00 0.00
7:53 pm 19:53 Clear 65 18.3 52 11.1 63 63 Calm 30.03 1017 10 16 0.00 0.00
8:53 pm 20:53 Clear 61 16.1 54 12.2 78 78 Calm 30.04 1017 10 16 0.00 0.00
9:53 pm 21:53 Clear 59 15 52 11.1 78 78 Calm 30.05 1018 10 16 0.00 0.00
10:53 pm 22:53 Clear 58 14.4 54 12.2 87 87 NNE 3 6 30.05 1018 10 16 0.00 0.00
11:53 pm 23:53 Clear 57 13.9 52 11.1 83 83 Calm 30.04 1017 10 16 0.00 0.00

Powered by AerisWeather